Theta_e
288 289 288 288 289 288 287 287 286 286 286 286 286 286 286 285 283 280 280 282 280 280 281 280 281 282 283 282 282 282 283 282 279 280 280 281 281 283 287 289 290 291 291
288 289 288 288 288 287 287 287 287 286 287 287 287 286 286 286 282 281 280 280 280 279 280 281 282 284 283 284 283 282 283 283 281 279 280 280 281 283 284 289 289 291 290
288 287 287 287 287 286 286 286 287 286 286 286 286 285 285 284 282 282 282 280 280 280 281 282 282 282 281 283 283 283 283 284 283 282 280 278 279 282 282 286 289 287 290
288 287 286 286 286 286 287 286 286 287 285 286 285 286 285 283 283 282 281 280 280 281 282 282 282 282 282 282 283 283 282 281 283 282 281 279 278 280 279 279 281 286 286
288 287 286 287 287 287 286 286 286 286 286 286 286 285 284 283 283 281 280 279 279 280 281 282 282 284 285 282 281 281 281 280 281 280 279 279 279 278 275 277 280 281 285
287 287 288 287 287 286 286 285 285 285 284 284 284 284 282 284 286 284 282 278 278 279 278 279 281 283 283 283 282 282 281 279 278 279 279 278 278 278 282 279 278 274 278
287 288 288 287 287 286 286 285 284 283 282 282 282 282 281 281 285 285 284 279 278 278 278 278 279 282 280 281 281 282 282 282 281 279 278 278 278 278 282 283 282 280 277
287 287 288 287 286 286 285 283 283 283 281 281 281 281 280 281 284 284 283 279 279 279 278 278 279 279 279 281 280 279 279 280 281 281 280 280 280 281 281 282 285 284 280
287 287 288 287 285 285 282 281 281 280 280 280 280 280 279 279 283 284 282 279 279 278 279 280 279 279 281 283 279 278 278 279 282 284 285 285 285 285 284 285 283 282 279
288 287 287 286 285 283 280 279 279 278 279 279 278 278 280 278 282 284 282 279 277 277 279 279 280 280 281 281 279 277 276 278 279 279 281 283 285 286 286 285 284 282 278
289 288 288 285 284 283 280 279 278 277 277 277 278 278 278 280 280 284 283 279 278 277 278 277 278 280 280 281 280 280 280 280 280 280 280 279 280 283 282 284 285 281 277
289 287 286 284 284 283 280 279 279 277 277 277 277 277 278 279 282 282 283 282 281 276 276 277 277 279 279 279 279 280 281 280 281 281 281 279 280 283 284 284 285 283 283
287 285 285 285 284 283 280 279 278 277 276 276 276 276 277 279 280 282 281 282 280 277 277 277 278 278 278 277 278 278 278 279 278 277 279 278 285 285 286 284 287 285 284
284 285 285 284 284 284 283 282 279 278 276 276 277 277 277 278 279 279 279 278 279 277 276 275 275 276 275 275 275 275 275 276 277 278 280 283 285 286 285 285 282 279 279
286 285 284 284 283 282 282 281 280 280 278 276 276 278 277 277 279 281 281 278 277 276 275 274 273 272 272 272 273 273 274 275 275 277 279 282 284 284 284 283 279 278 276
285 284 282 282 282 282 280 280 284 284 284 283 283 281 280 283 283 282 281 280 279 277 274 271 271 270 270 270 271 271 273 273 275 277 279 282 284 283 283 280 278 276 275
283 284 282 282 281 280 279 279 278 281 284 285 284 283 283 283 283 281 280 279 279 276 272 271 270 270 270 270 270 270 270 273 275 277 278 281 283 283 280 279 278 278 276
283 283 281 279 279 279 279 279 278 278 278 278 281 281 282 283 282 280 279 278 274 274 272 271 270 270 269 269 270 270 271 273 274 275 278 281 283 284 279 278 277 275 275
283 281 281 280 280 279 279 279 278 278 278 278 279 279 279 281 281 279 278 275 273 272 272 271 271 270 269 269 269 270 271 273 274 275 277 281 285 285 276 279 279 277 279
282 280 280 280 280 279 279 278 278 278 278 278 277 277 278 278 276 275 275 274 273 273 272 271 270 270 269 269 269 269 271 272 273 275 276 279 284 285 276 276 275 276 279
282 282 279 279 279 279 278 278 278 277 278 278 278 278 275 277 275 275 274 273 274 273 272 271 270 269 269 269 269 269 270 272 272 274 274 277 280 284 285 282 279 283 283
282 282 281 280 280 280 279 278 277 278 278 278 278 278 275 276 275 275 274 273 274 274 273 271 270 269 269 268 268 268 269 271 271 273 274 276 278 281 283 285 285 283 283
282 281 280 280 280 277 279 278 278 278 278 278 278 278 277 275 274 274 273 272 274 273 272 271 270 268 269 268 269 269 269 271 272 274 274 274 275 278 279 280 282 284 284
282 280 280 279 280 279 278 278 278 276 278 278 276 277 275 274 272 272 272 272 272 272 272 270 270 268 268 267 268 269 269 273 273 274 274 274 274 275 278 277 278 280 281
282 281 280 280 280 277 276 278 277 277 277 276 274 274 275 274 273 271 271 271 271 271 270 270 269 268 267 267 267 267 267 271 272 274 274 274 273 274 275 277 277 277 277
283 281 281 280 278 277 276 271 270 273 270 273 271 268 270 272 272 268 270 270 270 270 269 269 269 268 267 268 267 267 267 269 271 272 273 273 272 272 273 274 275 276 276
Wind_Speed
5 5 6 6 7 6 6 6 6 6 7 7 8 7 7 7 5 4 6 11 14 12 11 10 11 11 7 6 4 4 6 6 7 5 4 4 4 5 2 1 4 5 5
5 5 6 6 7 6 6 7 7 7 7 7 8 7 9 7 3 6 8 11 13 12 12 11 12 8 9 8 6 7 6 6 6 9 4 3 4 4 3 3 4 4 5
6 5 6 7 6 6 7 7 7 7 7 8 8 10 9 6 6 8 12 14 15 12 10 10 12 11 10 8 8 7 6 7 7 6 6 3 4 3 3 3 2 5 3
6 6 6 7 6 6 7 7 7 9 8 9 9 11 9 6 10 13 15 16 15 12 10 10 11 11 10 8 7 5 5 5 4 4 3 2 3 5 2 3 2 2 3
6 6 6 6 6 7 7 7 8 10 11 10 12 12 9 6 10 17 18 15 15 14 14 11 13 12 19 13 5 6 5 4 4 3 3 2 2 1 3 3 3 2 3
6 6 6 6 6 7 7 8 10 10 10 11 13 9 12 7 23 28 26 14 15 15 15 13 12 14 13 16 13 15 11 5 5 3 3 4 4 2 2 3 3 3 2
6 6 7 6 7 8 8 10 12 10 8 11 14 12 13 12 26 30 33 16 15 15 15 14 14 9 17 13 10 16 16 15 11 6 7 7 4 4 1 3 3 4 4
6 6 6 6 8 8 9 11 12 12 11 12 14 14 15 14 28 31 32 18 14 17 18 15 11 12 13 15 5 7 7 7 8 7 9 9 8 6 5 3 3 6 2
6 6 6 6 8 9 11 10 10 11 11 12 12 13 14 15 26 29 27 16 16 18 16 11 13 12 21 24 4 7 7 5 6 10 13 18 16 15 8 3 2 3 3
5 5 5 5 7 7 7 7 6 6 8 9 12 12 18 15 25 30 28 13 17 14 13 12 21 20 24 24 14 4 5 4 3 4 3 3 12 9 14 8 4 7 3
5 5 5 6 6 6 5 4 6 6 7 9 12 12 14 18 20 31 33 16 14 14 10 12 11 27 25 24 23 12 8 4 4 3 3 2 2 5 4 6 7 4 3
5 4 5 4 3 3 5 6 6 6 10 13 14 14 13 16 24 27 32 28 28 14 13 12 14 28 26 24 17 26 20 9 5 2 2 3 3 4 5 7 9 5 4
5 3 3 5 2 2 4 6 5 6 6 9 10 11 13 13 13 27 30 29 29 16 14 22 27 25 24 16 24 25 16 9 6 5 4 1 4 5 6 5 4 6 5
5 5 3 5 5 4 4 4 4 4 4 6 10 11 12 12 13 15 15 14 22 17 16 14 16 18 16 14 13 14 10 9 8 6 6 4 5 6 5 3 4 2 3
5 5 5 4 5 5 5 3 4 3 1 2 6 8 12 12 16 24 23 16 16 17 14 11 12 13 13 13 12 12 11 11 11 9 7 5 5 5 5 5 2 3 3
5 4 4 4 5 4 4 5 8 7 6 7 10 12 11 17 25 29 30 29 31 26 13 13 13 13 13 13 13 12 11 13 11 9 7 5 6 6 6 2 3 3 3
5 5 4 4 4 4 4 5 6 8 10 10 7 18 24 22 26 29 31 28 28 22 14 14 13 13 13 12 12 11 11 10 11 9 6 5 1 5 5 3 2 3 2
5 5 4 2 3 4 4 4 4 4 7 8 7 15 21 23 24 29 31 21 15 17 14 14 14 13 12 13 12 12 12 11 11 10 8 5 3 7 4 3 2 3 3
5 3 3 3 4 4 4 5 4 5 6 7 9 13 17 21 22 27 28 13 14 14 15 14 14 13 13 12 12 12 12 11 11 10 9 7 3 5 2 3 4 5 5
4 5 5 4 4 4 4 4 4 5 6 7 7 10 12 13 12 13 14 13 13 13 13 14 14 13 13 13 12 13 12 13 13 11 11 9 6 3 2 4 3 3 2
4 3 5 4 4 4 4 4 4 4 5 6 6 8 10 9 10 11 12 12 13 13 14 13 13 13 12 12 13 13 13 12 12 12 11 10 9 4 2 2 3 2 4
4 4 3 3 2 4 4 4 4 4 5 7 7 8 10 9 9 10 11 11 11 12 11 12 12 12 12 12 13 13 13 14 13 13 12 10 9 9 5 2 2 2 2
4 4 4 3 3 4 4 4 4 4 4 6 7 7 9 8 9 9 10 10 10 11 11 11 12 12 12 12 12 12 12 13 12 12 11 11 10 9 8 6 4 1 2
5 5 5 3 3 4 4 4 4 5 4 6 5 6 7 7 7 9 9 9 9 10 10 11 12 16 14 13 12 13 13 13 12 11 14 12 11 12 9 8 8 6 4
5 5 4 4 4 3 3 3 3 3 3 3 4 4 6 7 8 8 8 8 8 10 11 12 12 15 17 21 21 21 21 22 19 16 11 14 15 16 12 9 9 9 11
5 5 4 4 3 3 3 2 2 3 3 3 3 3 4 6 6 6 7 9 9 9 11 10 13 19 19 17 20 23 23 22 20 21 13 13 14 13 12 14 17 10 13
Wind_Direction
10 46 29 6 345 4 354 333 337 327 321 320 315 314 310 309 5 343 321 325 319 312 306 297 293 285 275 256 239 231 225 211 242 264 237 252 277 264 234 123 286 227 188
30 46 23 2 352 4 344 337 337 330 324 318 320 318 315 317 354 340 322 321 317 311 312 307 299 289 287 269 249 254 238 224 230 252 241 241 243 259 225 222 246 251 193
35 35 17 357 6 357 344 345 340 331 324 322 324 321 315 341 358 342 333 327 320 304 301 309 313 306 298 280 258 249 242 233 226 233 256 205 234 242 244 179 255 271 218
30 29 22 0 10 357 348 345 339 333 323 328 324 323 318 20 2 349 341 329 323 315 307 309 302 300 301 304 302 268 266 248 257 223 230 232 208 236 184 166 179 189 243
30 30 18 6 11 359 351 344 337 338 340 333 342 339 346 32 4 356 349 339 333 329 336 318 322 297 319 324 303 298 276 265 248 220 225 204 234 235 175 214 167 166 207
34 31 20 9 9 357 349 350 349 341 343 347 348 349 358 348 2 0 357 344 340 339 339 329 318 325 299 296 288 287 271 258 264 254 197 209 216 219 184 183 147 117 195
38 35 26 13 11 359 357 2 357 345 348 355 353 355 358 348 356 359 357 349 341 339 332 327 324 330 331 321 255 277 270 261 243 230 232 226 221 209 190 197 190 180 176
43 39 24 17 17 2 11 7 3 358 357 353 353 355 354 351 354 356 354 342 336 336 328 326 328 334 324 343 337 297 277 259 247 233 228 232 221 216 214 197 283 208 93
54 40 25 34 25 17 22 8 5 1 358 354 350 348 348 345 351 354 355 344 342 340 332 353 354 342 350 354 314 311 306 284 263 259 234 232 229 221 205 176 196 183 131
64 45 34 49 41 32 22 3 339 339 343 343 345 348 343 344 349 354 358 346 346 344 343 0 350 358 4 1 352 290 293 290 292 299 302 302 211 214 217 211 204 188 143
74 48 45 57 57 38 10 358 341 333 331 350 351 349 350 350 348 353 355 354 354 347 352 356 352 2 7 5 4 355 2 325 280 247 229 221 186 173 177 185 199 171 134
87 65 35 77 81 51 25 341 338 357 5 0 355 351 351 349 350 353 354 359 359 354 1 358 354 5 8 7 5 5 360 358 339 330 222 179 169 188 173 173 192 180 141
79 93 34 32 59 37 22 353 346 0 11 0 358 349 345 344 347 354 353 0 4 2 3 6 1 3 4 2 5 6 3 358 358 5 351 295 190 159 147 136 153 133 127
60 43 45 29 27 13 0 354 347 355 3 8 359 347 342 342 352 356 355 358 2 2 0 0 1 4 9 7 5 4 359 358 353 352 340 325 115 137 127 115 128 104 92
85 50 24 31 24 12 358 322 329 316 273 346 348 344 345 349 359 360 359 2 4 4 358 1 5 7 7 5 3 2 357 357 0 349 350 348 116 111 120 127 93 85 104
89 68 41 33 8 9 11 351 338 347 309 290 317 1 350 357 4 4 3 8 11 9 6 8 9 8 7 0 0 354 355 354 350 341 347 347 123 129 140 99 93 105 111
89 87 51 34 17 12 3 10 358 345 353 7 357 3 1 5 6 9 6 9 12 11 14 11 9 7 3 359 356 354 347 345 337 345 343 346 96 153 139 131 123 125 111
83 80 95 58 20 21 19 11 6 3 355 356 359 4 4 8 8 10 10 3 7 13 15 9 6 4 0 357 353 349 343 347 350 350 343 347 48 144 128 125 126 120 121
89 61 47 48 38 41 30 18 14 10 9 3 0 5 2 4 11 11 10 11 8 7 5 6 5 3 359 355 351 349 346 350 346 354 355 357 27 124 108 124 134 141 127
86 54 85 71 41 29 31 24 14 16 12 9 10 7 354 358 9 6 7 4 6 8 3 3 3 2 358 356 352 350 349 358 356 0 358 4 358 141 119 127 129 129 137
132 81 96 73 55 42 49 34 22 19 14 8 2 9 356 8 6 9 5 3 2 3 1 2 4 0 0 356 353 355 353 358 357 359 357 356 359 28 120 104 131 137 138
125 121 99 96 70 56 56 55 39 25 22 12 0 6 4 16 10 8 9 0 358 1 2 2 4 3 0 355 354 355 352 0 357 358 357 359 4 11 22 72 110 101 114
123 119 98 71 68 74 56 55 49 39 30 19 11 11 10 11 10 5 5 357 356 0 1 5 5 4 4 359 359 359 353 1 352 356 359 2 5 13 16 20 22 70 138
126 122 119 99 69 67 57 53 43 46 34 24 12 17 12 7 5 1 359 359 357 2 3 3 6 7 1 6 4 2 357 5 2 4 10 12 15 7 23 26 21 20 32
121 127 127 128 115 97 78 68 57 53 33 35 18 16 19 14 10 2 353 0 0 4 2 4 6 5 5 7 7 5 2 10 17 13 16 21 24 23 21 27 29 33 37
127 127 128 132 112 104 102 76 52 57 48 32 14 11 24 19 11 352 357 3 2 7 4 3 3 5 10 10 6 7 8 9 17 17 23 30 31 26 28 32 32 39 39